Lapse_Rate
7.8 7.4 7.1 7.0 6.7 6.9 7.1 7.3 7.1 7.0 7.0 6.7 6.5 6.5 6.4 6.5 6.5 6.5 6.5 6.4 6.4 6.4 6.3 6.3 6.4 6.4 6.4 6.3 6.3 6.2 6.3 6.5 6.5 6.5 6.5 6.7 6.5 6.5 6.5 6.6 6.8 6.8 7.0
8.0 7.3 6.8 6.6 7.1 6.9 7.0 7.3 7.4 7.0 6.9 6.5 6.2 6.3 6.5 6.6 6.7 6.5 6.3 6.4 6.4 6.4 6.5 6.4 6.4 6.4 6.3 6.4 6.4 6.4 6.5 6.5 6.6 6.6 6.6 6.5 6.6 6.7 7.0 7.1 7.2 7.2 7.2
7.9 7.5 7.1 6.7 7.0 7.4 7.3 7.2 7.3 7.0 6.8 6.5 6.2 6.5 6.8 6.8 6.6 6.4 6.5 6.7 6.6 6.5 6.4 6.4 6.4 6.3 6.3 6.4 6.5 6.4 6.5 6.7 6.7 6.8 6.8 6.8 6.7 6.8 7.0 7.1 7.1 6.9 6.9
8.1 7.9 7.6 7.0 6.8 7.4 7.3 7.2 7.4 7.2 6.7 6.5 6.5 6.7 6.6 6.3 6.0 6.5 6.7 6.6 6.4 6.4 6.4 6.4 6.4 6.3 6.4 6.4 6.4 6.5 6.8 6.7 6.8 6.8 7.0 6.9 6.6 6.7 6.7 6.7 6.4 6.2 6.3
7.8 7.6 7.6 7.6 7.4 7.2 7.7 7.4 7.2 7.1 7.1 7.1 7.0 7.0 6.7 6.3 6.6 6.6 6.7 6.6 6.4 6.5 6.5 6.4 6.2 6.3 6.4 6.4 6.5 6.6 6.6 6.9 6.8 6.5 6.5 6.6 6.7 6.7 6.7 6.5 6.2 5.9 5.9
8.0 7.2 7.2 7.3 7.5 7.4 7.5 7.7 7.4 7.0 6.9 6.9 7.1 6.7 6.3 6.4 6.6 6.6 6.3 6.3 6.4 6.3 6.3 6.3 6.2 6.1 6.3 6.4 6.5 6.4 6.6 6.9 6.9 6.5 6.5 6.6 6.7 6.6 6.5 6.3 6.2 6.0 5.8
8.3 7.9 7.6 7.7 7.8 7.5 7.4 7.5 7.6 7.1 7.1 7.1 7.1 6.8 6.6 6.6 6.5 6.3 6.1 6.2 6.2 6.1 6.1 5.9 5.7 6.0 6.1 6.3 6.9 6.8 6.3 6.7 6.9 6.6 6.6 6.4 6.4 6.4 6.4 6.3 6.3 5.9 5.9
7.6 7.4 7.1 7.0 7.0 7.1 7.3 7.2 7.2 7.1 7.1 7.1 7.2 7.0 7.0 6.8 6.5 6.2 6.2 6.2 6.0 5.8 5.8 5.8 6.0 6.1 6.2 6.3 6.5 6.5 6.6 6.5 6.6 6.4 6.4 6.6 6.3 6.2 6.4 6.4 6.4 6.1 6.1
7.2 6.8 6.6 6.7 6.6 6.8 7.2 7.4 7.4 7.2 7.2 7.3 7.4 7.2 7.1 7.0 6.6 6.4 6.2 6.0 5.8 5.8 6.0 5.7 5.7 5.7 5.8 5.7 6.3 6.3 6.5 6.7 6.5 6.7 6.6 6.4 6.2 6.3 6.4 6.4 6.4 6.5 6.5
5.8 6.3 6.4 6.5 6.6 6.9 7.3 7.3 7.1 7.0 7.2 7.6 7.5 7.3 7.1 6.9 6.5 6.1 5.9 5.9 6.0 5.9 5.6 5.4 5.7 5.7 5.4 6.0 6.1 6.2 6.5 6.6 6.4 6.6 6.1 6.1 6.3 6.4 6.4 6.4 6.6 6.7 6.8
6.6 6.0 6.3 6.4 6.5 6.8 7.1 7.2 7.3 7.6 7.7 7.9 7.4 7.1 6.8 6.4 6.3 6.1 6.0 5.9 5.7 5.7 5.7 5.8 5.5 5.6 5.8 6.1 5.9 6.1 6.4 6.6 6.4 6.2 6.1 6.5 6.6 6.5 6.5 6.6 6.6 6.6 6.5
6.5 6.5 6.5 6.5 6.6 6.6 7.0 7.5 7.8 7.8 7.7 7.3 6.8 6.6 6.5 6.5 6.1 5.8 5.8 5.7 5.5 6.0 5.9 5.6 5.5 5.9 6.1 6.1 6.2 6.4 6.3 6.5 6.3 6.2 6.5 6.6 6.6 6.7 6.6 6.5 6.5 6.4 6.5
6.3 6.5 6.7 6.6 6.6 6.8 7.0 7.2 7.4 7.4 7.5 7.5 7.2 6.7 6.4 6.4 5.8 5.4 5.2 5.6 6.1 6.1 6.2 6.1 6.1 6.0 6.1 6.2 6.3 6.5 6.4 6.5 6.1 6.5 6.6 6.7 6.7 6.5 6.4 6.3 6.4 6.5 6.6
7.0 6.6 6.2 6.1 6.3 6.3 6.3 6.5 6.6 6.6 6.6 6.6 6.5 6.5 6.6 6.5 6.3 5.8 6.0 6.1 6.2 6.2 6.2 6.2 6.4 6.3 6.2 6.0 6.3 6.6 6.8 6.5 6.3 6.6 6.7 6.8 6.6 6.3 6.2 6.2 6.4 6.5 6.6
7.2 6.8 6.4 6.2 6.0 6.1 6.1 6.4 6.4 6.4 6.4 6.3 6.4 6.3 6.5 6.3 6.0 5.7 6.1 5.9 6.0 6.3 6.3 6.2 6.7 6.3 6.2 6.5 6.6 7.0 6.8 6.6 6.8 6.7 6.6 6.5 6.3 6.1 6.1 6.4 6.4 6.4 6.5
6.9 6.9 6.8 6.8 6.8 6.5 6.6 6.6 6.4 6.4 6.3 6.5 6.6 6.7 6.3 6.0 5.9 5.8 6.2 5.9 6.1 6.3 6.4 6.8 6.7 6.7 6.9 6.7 7.2 7.1 6.9 6.9 6.9 6.8 6.5 6.2 6.2 6.1 6.4 6.5 6.5 6.4 6.4
7.1 7.1 7.1 6.9 6.8 6.9 6.8 6.8 7.0 7.1 7.1 7.2 7.3 6.9 6.5 6.6 6.1 6.1 6.1 6.0 6.3 6.4 6.6 6.8 6.8 6.8 6.8 7.2 7.3 7.0 6.9 6.8 6.6 6.5 6.1 6.1 6.2 6.4 6.5 6.5 6.4 6.5 6.6
7.4 7.4 7.3 7.0 7.0 7.1 7.2 7.3 7.6 7.7 7.8 7.9 7.7 7.5 7.5 7.1 6.6 6.6 6.9 6.7 6.7 6.8 7.0 6.8 7.0 7.0 7.0 7.2 7.1 6.9 6.8 6.6 6.3 6.1 6.0 6.2 6.1 6.4 6.4 6.4 6.4 6.5 6.6
8.2 8.1 8.0 7.9 7.9 8.1 8.1 7.9 7.7 7.7 7.7 7.9 7.9 7.8 7.6 7.6 7.3 7.2 7.1 7.1 7.0 7.1 7.0 6.8 6.9 7.0 7.0 7.0 6.9 6.7 6.6 6.3 6.1 6.0 6.2 6.1 6.1 6.3 6.3 6.3 6.3 6.2 6.6
8.1 8.3 8.2 8.1 8.0 7.9 7.9 8.0 8.0 7.8 7.8 7.8 7.8 7.9 7.8 7.7 7.5 7.6 7.3 7.6 7.5 7.3 6.8 7.1 7.1 7.0 6.9 6.8 6.8 6.5 6.2 6.0 6.2 6.1 6.2 6.1 6.2 6.3 6.3 6.2 6.2 6.2 6.3
8.2 8.3 8.3 8.2 8.2 8.2 8.1 8.3 8.1 7.9 7.7 7.8 7.7 7.9 7.9 8.0 7.8 7.7 7.4 7.0 7.0 6.9 7.1 6.8 6.8 6.8 6.7 6.6 6.4 6.3 6.1 6.2 6.2 6.1 6.2 6.2 6.2 6.3 6.3 6.2 6.0 6.2 6.3
8.3 8.5 8.5 8.3 8.4 8.4 8.4 8.5 8.4 8.4 8.1 7.8 7.8 7.9 8.0 8.0 8.0 7.4 7.3 7.4 7.2 7.2 6.8 6.8 6.8 6.7 6.5 6.4 6.3 6.1 6.1 6.1 6.0 6.1 6.1 6.2 6.3 6.3 6.3 6.3 6.0 6.0 6.1
8.4 8.6 8.6 8.5 8.5 8.5 8.6 8.7 8.5 8.3 8.2 7.8 7.6 7.6 7.6 7.7 7.5 7.5 7.3 7.2 7.1 6.7 6.7 6.7 6.7 6.7 6.6 6.5 6.4 6.1 6.0 6.0 5.9 6.0 6.1 6.2 6.2 6.2 6.3 6.2 6.0 6.0 5.9
8.3 8.5 8.8 8.7 8.5 8.4 8.5 8.4 8.2 8.1 7.9 7.6 7.4 7.6 7.6 7.5 7.4 7.3 7.4 7.2 6.9 6.8 6.6 6.6 6.7 6.8 6.7 6.5 6.3 6.0 5.7 5.8 5.9 5.9 6.0 6.1 6.1 6.1 6.1 6.1 6.0 5.9 5.8
8.4 8.5 8.6 8.6 8.5 8.4 8.2 8.1 7.9 7.9 7.9 7.7 7.2 7.3 7.4 7.3 7.1 7.0 7.0 6.8 6.7 6.5 6.5 6.6 6.7 6.7 6.6 6.4 6.2 5.9 5.5 5.8 5.8 5.8 5.9 6.0 6.0 6.0 6.0 5.9 5.9 5.8 5.7
8.2 8.3 8.4 8.4 8.3 8.1 7.9 7.8 7.7 7.7 7.8 7.8 7.6 7.6 7.5 7.3 7.0 6.9 6.8 6.6 6.5 6.5 6.6 6.8 6.8 6.6 6.4 6.2 5.9 5.6 5.3 5.6 5.7 5.7 5.8 5.9 5.9 5.8 5.8 5.7 5.7 5.6 5.6
Wind_Speed
17 14 22 20 20 19 18 17 15 11 8 4 4 4 4 5 4 8 12 10 11 13 11 8 8 10 5 4 5 3 4 4 5 3 4 4 5 6 5 7 8 8 9
8 16 21 19 21 20 19 17 17 15 9 5 3 3 4 3 4 7 10 12 11 13 12 8 5 6 5 6 5 5 2 3 5 2 1 3 4 4 6 5 5 6 9
11 17 16 20 20 20 19 18 16 15 10 8 4 4 5 4 3 3 4 6 13 13 13 12 8 6 4 4 5 4 5 3 4 7 3 3 1 2 2 6 7 6 4
13 19 20 20 20 18 17 18 17 15 10 9 9 12 7 6 3 3 3 4 11 12 13 12 12 8 6 6 4 4 3 3 4 3 4 4 1 1 3 3 5 5 6
20 22 22 21 19 19 18 17 16 14 8 10 14 9 6 3 5 6 7 6 6 11 12 13 11 7 6 5 6 5 6 4 3 3 2 3 3 4 3 2 4 4 4
20 18 16 17 16 15 15 15 14 10 10 10 11 9 8 9 9 8 6 5 4 4 9 12 11 10 8 5 4 5 6 5 5 4 5 3 2 2 3 2 2 3 3
16 16 16 12 11 10 10 11 13 8 9 9 8 8 9 11 13 10 7 8 4 3 5 8 6 5 6 6 6 5 5 4 4 4 3 3 3 2 2 3 0 0 2
13 12 10 9 11 11 10 9 9 13 10 8 7 7 10 8 7 6 8 6 5 4 8 8 8 7 6 6 6 3 3 5 4 7 6 4 4 3 2 2 2 2 2
15 10 7 7 8 7 8 9 10 9 8 9 9 8 8 8 7 8 8 6 6 5 6 9 6 8 5 5 8 4 5 5 4 5 6 4 3 4 3 3 2 3 0
13 10 8 8 7 8 8 8 9 9 9 9 8 8 8 8 8 8 8 7 5 5 5 5 5 6 5 7 6 4 4 6 4 4 6 5 4 5 4 3 3 2 2
8 8 7 8 9 9 8 7 9 11 10 10 10 10 8 8 8 8 6 6 6 5 6 6 5 5 5 6 5 5 5 7 7 6 7 7 7 5 5 5 4 4 3
6 6 7 9 10 10 9 8 9 11 11 11 11 9 8 8 8 7 6 4 3 4 5 5 5 6 6 5 6 6 6 8 9 6 8 7 6 7 7 5 6 5 4
5 6 6 8 10 11 9 10 10 10 10 11 11 10 9 9 9 8 7 5 5 3 4 6 6 5 5 5 6 7 7 9 7 7 7 6 7 7 5 5 6 5 5
8 6 6 7 9 10 10 10 9 10 9 9 9 9 8 8 7 8 8 7 6 5 4 5 6 6 6 6 4 7 8 7 7 8 8 8 8 6 5 6 6 6 5
8 7 7 7 10 11 9 10 10 11 11 10 9 7 8 10 9 8 8 8 8 5 6 4 6 6 6 5 5 7 7 7 8 9 8 7 10 11 9 5 4 6 5
8 8 7 9 9 12 11 12 12 11 10 9 9 9 12 9 8 8 8 7 5 6 8 6 9 7 5 9 7 9 8 7 8 9 8 9 11 6 8 8 12 10 4
7 9 9 5 6 9 11 12 12 10 9 9 9 11 10 10 10 9 8 7 6 5 9 8 9 8 5 13 16 17 8 7 7 7 8 6 6 7 5 7 11 10 9
9 7 6 6 4 2 3 7 10 11 10 9 11 11 11 10 10 10 8 7 7 8 8 8 8 8 4 13 15 17 9 7 6 7 6 6 3 3 4 6 5 1 2
5 5 4 3 3 4 4 9 11 10 10 12 12 11 11 12 11 10 9 7 8 7 6 7 8 7 4 12 12 10 7 6 5 4 10 6 4 6 9 6 4 2 3
7 7 2 2 5 3 6 6 6 10 11 12 12 12 12 13 12 11 11 7 8 8 7 6 6 10 4 11 8 5 5 6 3 2 4 11 6 9 10 6 4 3 3
7 7 5 4 2 5 7 6 4 5 5 7 9 10 11 11 12 11 9 8 9 8 7 7 6 6 6 5 8 6 4 7 6 4 2 2 9 10 10 9 4 4 3
7 8 6 5 4 4 6 7 7 6 9 9 10 9 9 8 9 11 10 10 10 9 8 7 7 4 3 9 9 8 7 11 6 6 2 5 10 9 8 3 5 6 5
5 7 9 7 4 5 5 7 7 9 10 10 10 10 10 9 9 10 10 8 9 8 7 6 6 6 3 2 11 9 7 14 5 6 10 11 9 6 4 7 7 9 4
6 3 10 9 7 6 5 5 9 9 10 10 10 10 10 10 9 7 8 7 8 7 7 7 7 7 6 3 2 1 6 13 7 9 8 7 4 5 4 1 3 3 3
6 6 9 8 8 7 6 7 8 9 9 9 9 10 8 10 9 8 7 7 7 8 8 8 7 8 7 6 11 9 5 4 6 6 2 1 1 1 1 1 2 1 1
6 6 7 9 9 9 9 8 9 9 10 9 9 8 8 8 8 7 5 10 9 12 15 15 12 7 13 19 19 18 16 15 15 3 2 2 3 4 4 3 2 1 3
Wind_Direction
193 163 164 153 140 141 136 140 131 127 124 122 128 127 132 119 103 107 116 109 97 103 107 89 77 83 76 68 34 17 40 10 347 26 348 36 74 66 67 64 73 80 93
163 158 155 143 146 144 139 138 138 136 137 138 134 121 131 109 115 107 103 99 98 91 90 93 84 102 93 68 46 33 28 11 15 61 91 26 352 21 57 45 34 56 81
165 150 140 143 139 144 143 140 140 143 144 157 133 92 96 92 92 105 99 100 100 99 97 89 89 83 81 79 64 39 51 44 12 37 96 67 177 322 354 43 43 26 38
160 148 144 147 145 144 138 142 149 154 158 147 134 148 150 148 169 119 110 93 102 95 94 94 89 87 78 68 55 42 52 84 45 4 21 51 143 142 334 4 24 5 32
157 155 152 144 140 145 146 148 151 160 142 145 146 146 149 145 123 128 119 115 93 93 92 90 89 86 83 75 73 52 49 62 75 53 14 22 36 35 70 338 347 343 41
137 131 129 127 132 135 140 147 149 153 139 142 153 158 147 136 137 141 134 122 108 106 101 94 85 87 84 90 96 79 64 70 63 51 37 53 76 24 51 17 345 318 324
107 114 121 118 117 125 123 129 149 136 149 138 155 143 141 147 149 152 147 144 132 113 108 99 92 89 99 106 95 94 78 73 71 70 66 33 56 49 66 96 48 2 297
74 88 96 111 119 138 138 122 128 143 144 132 121 124 131 144 153 147 145 137 135 126 120 116 114 100 100 101 99 83 91 77 78 72 55 49 34 41 39 103 113 357 323
50 52 91 93 104 108 102 107 101 114 110 107 107 97 106 111 114 105 110 119 124 126 130 118 111 119 116 106 102 85 75 81 75 73 59 64 26 22 25 56 78 135 2
79 44 53 98 96 103 111 110 112 121 110 106 103 101 98 94 92 95 106 114 119 113 122 114 131 127 112 92 107 95 95 95 76 77 66 41 23 16 25 22 360 41 146
122 142 145 131 130 135 135 128 116 118 110 104 99 100 102 102 106 106 108 112 124 133 122 137 136 125 112 112 108 99 98 94 80 67 62 42 39 31 17 20 15 25 32
108 129 151 156 148 141 140 128 130 125 130 120 114 116 112 105 104 103 103 108 128 111 135 135 131 120 109 109 105 101 88 86 79 79 68 50 45 37 24 11 17 24 20
253 164 139 158 152 150 142 132 136 134 131 130 132 136 135 131 129 128 130 137 113 150 158 135 125 119 120 113 117 110 97 83 100 96 87 74 56 40 22 30 16 16 4
251 200 169 147 149 149 147 135 138 140 137 134 137 135 132 132 142 143 141 128 164 181 145 118 118 100 80 61 86 114 106 109 113 102 93 80 71 52 29 44 20 12 4
233 191 174 152 153 149 146 143 148 148 146 146 148 149 144 152 155 150 147 160 161 116 77 123 99 92 77 67 57 91 93 111 117 104 92 101 83 68 66 71 38 27 27
215 202 171 167 144 155 165 166 167 167 166 162 156 145 147 150 139 143 152 136 143 188 180 105 102 88 82 58 98 110 101 84 89 104 94 74 67 66 73 80 65 59 56
91 90 88 87 160 168 176 181 177 166 159 146 148 150 157 150 147 142 145 161 134 113 96 98 104 99 91 94 105 103 93 88 75 77 96 87 67 66 39 82 79 55 77
106 94 86 84 74 108 238 169 165 162 163 154 158 167 156 155 155 153 154 141 136 126 133 124 119 112 114 118 114 108 101 96 81 85 101 101 60 56 96 85 86 11 13
130 125 121 121 83 83 85 133 150 160 152 165 168 166 160 153 151 156 149 141 133 133 117 126 126 126 118 137 126 123 113 103 103 114 105 98 67 98 101 100 119 12 321
142 155 132 66 98 94 105 107 132 151 167 169 166 160 158 159 160 155 151 143 135 132 127 125 125 144 135 159 142 124 130 128 126 67 73 106 109 97 100 105 133 76 272
138 137 145 114 96 85 116 104 104 158 136 134 141 152 159 160 159 149 147 142 140 134 134 131 136 132 150 181 163 140 157 156 148 129 100 80 107 100 107 118 138 195 256
176 156 148 161 145 92 128 139 159 144 144 145 148 151 153 155 156 152 147 143 141 145 153 146 139 149 156 175 169 154 125 170 137 146 163 129 114 112 117 131 103 64 65
198 173 162 154 173 151 150 153 157 154 150 151 154 151 151 153 154 148 149 148 153 156 159 168 152 155 168 164 167 153 117 117 108 138 149 146 146 127 105 111 91 67 68
227 167 139 154 162 163 163 150 155 153 153 153 152 151 150 151 150 151 159 159 162 164 166 179 175 157 161 158 135 124 117 121 121 132 132 149 174 213 191 331 88 89 101
212 187 161 158 162 151 144 148 154 155 156 153 154 156 156 157 153 157 167 172 171 174 176 187 177 166 175 189 173 159 146 141 148 131 88 105 162 211 252 224 169 171 97
196 165 154 154 153 143 143 156 162 166 160 160 160 162 158 158 156 157 154 176 180 208 196 188 170 180 177 173 174 176 176 169 166 149 173 198 201 200 195 172 159 84 80